カタログに戻る

COSMOS 1275 DEB

運用中PO
NORAD 17641·DEBRIS·🇷🇺 Russia

打ち上げ Jun 4, 1981 から Plesetsk Cosmodrome

Loading…

次のパス (今後24時間)

TLE

最新Source: Space-Track

元期: Sep 14, 2026, 14:11 UTC

1 17641U 81053LL  26257.59115950  .00002231  00000-0  95892-3 0  9997
2 17641  82.7502 194.3292 0050201 117.2335   2.7292 14.23642446124606

AllMySatでCOSMOS 1275 DEBをリアルタイム追跡

Download on the App Store